GW7226 Weather Reports


time (UTC)temp
F
wind
direction
speed
knots
gust
knots
rain 1hr
in
rain 24hr
in
rain mn
in
humidity
%
barometer
mb
20260506121404 52 339 0.9 4.3 0.00 0.00 0.00 93 1016.0
20260506120904 52 339 0.9 4.3 0.00 0.00 0.00 92 1015.9
20260506120519 51 336 0.9 4.3 0.00 0.00 0.00 93 1015.8
20260506120455 52 336 0.9 4.3 0.00 0.00 0.00 93 1015.9
20260506115400 51 336 0.9 1.7 0.00 0.00 0.00 93 1015.8
20260506114854 51 336 0.9 1.7 0.00 0.00 0.00 93 1015.8
20260506114348 51 336 0.9 1.7 0.00 0.00 0.00 92 1015.8
20260506113842 51 336 0.0 1.7 0.00 0.00 0.00 92 1015.8
20260506113342 51 336 0.0 0.9 0.00 0.00 0.00 92 1015.8
20260506112839 51 336 0.0 1.7 0.00 0.00 0.00 91 1015.8
20260506112337 51 336 0.9 2.6 0.00 0.00 0.00 91 1015.8
20260506111837 51 336 0.0 2.6 0.00 0.00 0.00 91 1015.7
20260506111337 51 336 0.9 2.6 0.00 0.00 0.00 91 1015.7
20260506111131 51 336 0.0 2.6 0.00 0.00 0.00 91 1015.6
20260506110333 51 336 0.0 1.7 0.00 0.00 0.00 91 1015.7
20260506105829 51 336 0.0 1.7 0.00 0.00 0.00 91 1015.7
20260506105329 51 336 0.9 1.7 0.00 0.00 0.00 91 1015.6
20260506104831 51 336 0.9 1.7 0.00 0.00 0.00 91 1015.6
20260506104329 51 336 0.9 1.7 0.00 0.00 0.00 91 1015.5
20260506104119 51 336 0.9 1.7 0.00 0.01 0.00 91 1015.5
20260506103330 52 336 0.9 1.7 0.00 0.01 0.00 91 1015.4
20260506102829 52 335 0.0 1.7 0.00 0.01 0.00 91 1015.4
20260506102328 52 335 0.0 1.7 0.00 0.01 0.00 91 1015.4
20260506101829 52 335 0.9 1.7 0.00 0.01 0.00 91 1015.4
20260506101330 52 333 0.9 2.6 0.00 0.01 0.00 91 1015.4
20260506100831 52 331 0.9 2.6 0.00 0.01 0.00 90 1015.3
20260506100330 52 329 0.9 2.6 0.00 0.01 0.00 90 1015.1
20260506095829 52 329 0.0 1.7 0.00 0.01 0.00 89 1015.2
20260506095333 52 329 0.0 3.5 0.00 0.01 0.00 90 1015.1
20260506094831 52 329 0.9 3.5 0.00 0.01 0.00 91 1015.4
20260506094330 52 329 1.7 3.5 0.00 0.01 0.00 91 1015.1
20260506093830 52 329 2.6 3.5 0.00 0.01 0.00 91 1014.9
20260506093330 52 329 1.7 3.5 0.00 0.01 0.00 90 1015.0
20260506092829 52 329 1.7 2.6 0.00 0.01 0.00 90 1015.0
20260506092331 52 329 0.9 2.6 0.00 0.01 0.00 90 1015.0
20260506091829 52 329 0.9 1.7 0.00 0.01 0.00 90 1014.9
20260506091331 52 329 0.9 1.7 0.00 0.01 0.00 90 1015.0
20260506091124 52 329 0.9 1.7 0.00 0.01 0.00 89 1015.0
20260506090329 52 329 0.9 1.7 0.00 0.01 0.00 89 1015.0
20260506090234 52 329 0.0 0.9 0.00 0.01 0.00 89 1015.1
20260506085905 52 329 0.0 0.9 0.00 0.01 0.00 89 1015.1
20260506084831 53 329 0.0 0.9 0.00 0.01 0.00 88 1015.1
20260506084331 53 329 0.0 0.9 0.00 0.01 0.00 88 1015.3
20260506083829 53 329 0.0 0.9 0.00 0.01 0.00 88 1015.2
20260506083323 53 329 0.0 0.0 0.00 0.01 0.00 87 1015.3
20260506082817 53 329 0.0 0.9 0.00 0.01 0.00 87 1015.5
20260506082602 53 329 0.0 0.9 0.00 0.01 0.00 87 1015.7
20260506081802 53 329 0.0 0.9 0.00 0.01 0.00 87 1015.7
20260506081304 54 329 0.0 1.7 0.00 0.02 0.00 87 1015.7
20260506080806 54 329 0.0 1.7 0.00 0.02 0.00 87 1015.8
20260506080302 54 329 0.0 2.6 0.00 0.02 0.00 87 1015.8
20260506073301 55 329 1.7 4.3 0.00 0.02 0.00 86 1015.2
20260506072801 55 328 1.7 3.5 0.00 0.03 0.00 86 1015.1
20260506072301 55 333 0.9 3.5 0.00 0.03 0.00 86 1015.1
20260506071804 55 333 0.9 2.6 0.00 0.03 0.00 86 1015.1
20260506071303 55 331 1.7 2.6 0.00 0.03 0.00 86 1015.0
20260506070804 55 333 1.7 2.6 0.00 0.03 0.00 86 1014.9
20260506070301 55 333 1.7 4.3 0.00 0.03 0.00 86 1014.9
20260506062300 55 316 0.9 3.5 0.00 0.03 0.03 87 1014.4
20260506061801 55 308 0.9 3.5 0.00 0.03 0.03 87 1014.4
20260506061302 55 308 0.9 2.6 0.00 0.03 0.03 87 1014.2
20260506061059 55 308 0.9 2.6 0.00 0.03 0.03 87 1014.2
20260506060301 55 308 0.9 1.7 0.00 0.03 0.03 87 1014.2
20260506060112 55 308 0.9 1.7 0.00 0.03 0.03 87 1014.1
20260506051302 57 308 0.9 1.7 0.00 0.03 0.03 86 1013.7
20260506050802 57 308 0.9 1.7 0.00 0.03 0.03 85 1013.7
20260506050555 57 307 0.9 1.7 0.00 0.03 0.03 85 1013.6
20260506050121 57 308 0.9 1.7 0.00 0.03 0.03 85 1013.7
20260506044801 58 307 0.0 1.7 0.00 0.03 0.03 84 1013.6
20260506044557 58 308 0.9 1.7 0.00 0.03 0.03 84 1013.6
20260506043803 58 307 0.9 1.7 0.00 0.03 0.03 83 1013.4
20260506043303 58 308 1.7 3.5 0.00 0.03 0.03 83 1013.3
20260506042920 58 308 1.7 2.6 0.00 0.03 0.03 83 1013.3
20260506042854 58 308 1.7 3.5 0.00 0.03 0.03 83 1013.4
20260506041804 58 308 1.7 2.6 0.00 0.03 0.03 82 1013.1
20260506041305 58 308 0.9 2.6 0.00 0.03 0.03 82 1013.1
20260506040802 59 308 0.0 1.7 0.00 0.03 0.03 81 1013.1
20260506040304 59 308 0.9 2.6 0.00 0.03 0.03 81 1013.1
20260506035804 59 308 0.9 2.6 0.00 0.03 0.03 80 1012.9
20260506035554 59 308 1.7 2.6 0.00 0.03 0.03 80 1013.0
20260506034803 60 308 0.9 2.6 0.00 0.03 0.03 80 1012.9
20260506034303 60 308 0.9 2.6 0.00 0.03 0.03 79 1012.9
20260506033804 60 308 0.9 2.6 0.00 0.03 0.03 79 1012.8
20260506033303 60 308 1.7 2.6 0.00 0.03 0.03 79 1012.8
20260506032802 60 308 1.7 2.6 0.00 0.03 0.03 79 1012.7
20260506032305 61 308 0.9 2.6 0.00 0.03 0.03 80 1012.7
20260506031851 61 308 0.9 2.6 0.00 0.03 0.03 76 1012.5
20260506031836 61 307 0.9 2.6 0.00 0.03 0.03 77 1012.4
20260506031059 62 308 0.9 2.6 0.00 0.03 0.03 76 1012.4
20260506030549 62 308 0.9 2.6 0.00 0.03 0.03 75 1012.5
20260506025753 62 308 0.9 3.5 0.00 0.03 0.03 75 1012.5
20260506025542 63 307 0.9 3.5 0.00 0.03 0.03 75 1012.5
20260506024741 63 307 1.7 3.5 0.00 0.03 0.03 74 1012.3
20260506024237 64 308 1.7 3.5 0.00 0.03 0.03 75 1012.3
20260506024033 64 308 1.7 6.1 0.00 0.03 0.03 75 1012.3
20260506023237 64 308 1.7 6.1 0.00 0.03 0.03 72 1012.3
20260506022738 65 306 1.7 4.3 0.00 0.03 0.03 71 1012.2
20260506022237 65 306 2.6 6.1 0.00 0.03 0.03 70 1012.1
20260506021737 65 304 2.6 6.1 0.00 0.03 0.03 70 1012.1
20260506021237 66 299 2.6 4.3 0.00 0.03 0.03 69 1012.1
20260506020738 66 323 1.7 7.8 0.00 0.03 0.03 68 1012.1
20260506020236 67 309 2.6 7.8 0.00 0.03 0.03 67 1012.0
20260506015737 68 308 2.6 7.8 0.00 0.03 0.03 67 1012.0
20260506015236 68 311 2.6 7.8 0.00 0.03 0.03 66 1012.0
20260506015031 68 313 2.6 6.1 0.00 0.03 0.03 66 1011.9
20260506014231 68 316 2.6 6.1 0.00 0.03 0.03 67 1012.0
20260506013733 68 349 1.7 6.1 0.00 0.03 0.03 67 1011.8
20260506013230 68 300 1.7 4.3 0.00 0.03 0.03 68 1011.9
20260506012852 67 298 2.6 4.3 0.00 0.03 0.03 69 1012.1
20260506012826 68 300 1.7 4.3 0.00 0.03 0.03 68 1011.9
20260506011821 66 351 1.7 7.0 0.00 0.03 0.03 71 1012.1
20260506011803 66 298 2.6 7.0 0.00 0.03 0.03 70 1012.0
20260506010722 65 312 1.7 7.8 0.00 0.03 0.03 71 1012.1
20260506010216 65 318 2.6 7.8 0.00 0.03 0.03 71 1012.2
20260506005710 65 293 2.6 7.0 0.00 0.03 0.03 71 1012.2
20260506005205 65 299 2.6 7.0 0.00 0.03 0.03 71 1012.2
20260506004703 65 345 2.6 6.1 0.00 0.03 0.03 72 1012.2
20260506004205 65 298 1.7 6.1 0.00 0.03 0.03 71 1012.2
20260506003704 65 293 1.7 5.2 0.00 0.03 0.03 72 1012.2
20260506003203 65 5 1.7 5.2 0.00 0.03 0.03 72 1012.1
20260506002702 65 331 2.6 6.1 0.00 0.03 0.03 71 1012.1
20260506002428 66 267 2.6 6.1 0.00 0.03 0.03 69 1011.9
20260506002205 66 267 2.6 6.1 0.00 0.03 0.03 69 1011.9
20260506001703 66 303 2.6 7.8 0.00 0.03 0.03 69 1012.0
20260506001201 66 301 2.6 7.8 0.00 0.03 0.03 70 1012.0
20260506000702 66 314 1.7 5.2 0.00 0.03 0.03 70 1012.0
20260506000200 66 0 1.7 5.2 0.00 0.03 0.03 70 1011.9
20260505235701 66 345 1.7 4.3 0.00 0.03 0.03 70 1011.9
20260505235201 66 0 2.6 4.3 0.00 0.03 0.03 69 1011.9
20260505234703 66 0 1.7 4.3 0.00 0.03 0.03 70 1011.9
20260505234202 66 0 1.7 4.3 0.00 0.03 0.03 70 1012.0
20260505233702 66 0 1.7 4.3 0.00 0.03 0.03 71 1011.9
20260505233458 66 0 1.7 4.3 0.00 0.03 0.03 71 1011.9
20260505232703 66 350 0.9 4.3 0.00 0.03 0.03 71 1011.9
20260505232201 66 349 1.7 4.3 0.00 0.03 0.03 71 1011.9
20260505231701 66 355 1.7 4.3 0.00 0.03 0.03 70 1011.9
20260505231202 65 355 1.7 4.3 0.00 0.03 0.03 72 1011.9
20260505230703 65 355 1.7 4.3 0.00 0.03 0.03 71 1011.9
20260505230201 65 355 1.7 7.8 0.00 0.03 0.03 72 1012.0
20260505225701 65 302 2.6 7.8 0.00 0.03 0.03 75 1012.0
20260505225200 65 320 2.6 7.8 0.00 0.03 0.03 72 1011.9
20260505224701 65 318 2.6 7.8 0.00 0.03 0.03 73 1011.9
20260505224201 64 355 2.6 7.8 0.00 0.03 0.03 73 1011.8
20260505223701 64 9 4.3 7.8 0.00 0.03 0.03 71 1011.9
20260505223203 65 302 4.3 11.3 0.00 0.03 0.03 72 1012.1
20260505222702 65 319 4.3 11.3 0.00 0.03 0.03 70 1012.1
20260505222517 65 346 3.5 8.7 0.00 0.03 0.03 71 1012.1
20260505221703 65 315 3.5 8.7 0.00 0.03 0.03 71 1012.1
20260505221202 65 351 3.5 9.6 0.00 0.03 0.03 72 1012.1
20260505220703 65 355 3.5 9.6 0.00 0.03 0.03 71 1012.1
20260505220202 65 0 3.5 9.6 0.00 0.03 0.03 71 1012.2
20260505215821 65 313 2.6 7.8 0.00 0.03 0.03 72 1012.2
20260505215758 65 307 3.5 9.6 0.00 0.03 0.03 72 1012.2
20260505214704 65 346 3.5 7.0 0.00 0.03 0.03 72 1012.2
20260505214203 65 304 3.5 7.0 0.00 0.03 0.03 70 1012.3
20260505213706 65 309 2.6 7.0 0.00 0.03 0.03 71 1012.4
20260505213202 65 306 2.6 7.0 0.00 0.03 0.03 71 1012.3
20260505212701 65 355 2.6 7.0 0.00 0.03 0.03 72 1012.4
20260505212202 65 13 2.6 7.8 0.00 0.03 0.03 72 1012.4
20260505211701 64 5 3.5 7.8 0.00 0.03 0.03 72 1012.4
20260505211202 64 277 3.5 7.8 0.00 0.03 0.03 71 1012.4
20260505210701 64 309 2.6 7.8 0.00 0.03 0.03 74 1012.4
20260505210502 64 279 2.6 7.8 0.00 0.03 0.03 74 1012.3
20260505210000 64 299 2.6 7.8 0.00 0.03 0.03 73 1012.3
20260505205324 64 319 2.6 7.8 0.00 0.03 0.03 72 1012.4
20260505205258 64 350 2.6 7.8 0.00 0.03 0.03 73 1012.3
20260505204202 64 321 2.6 7.0 0.00 0.03 0.03 73 1012.5
20260505204001 64 327 2.6 7.0 0.00 0.03 0.03 72 1012.7
20260505203202 64 289 2.6 7.0 0.00 0.03 0.03 72 1012.8
20260505202701 64 17 2.6 7.0 0.00 0.03 0.03 73 1012.7
20260505202201 64 24 2.6 7.0 0.00 0.03 0.03 74 1012.7
20260505201701 63 0 2.6 7.0 0.00 0.03 0.03 74 1012.8
20260505201202 63 309 2.6 7.0 0.00 0.03 0.03 73 1012.7
20260505200701 63 321 2.6 8.7 0.00 0.03 0.03 72 1012.8
20260505200203 63 284 2.6 8.7 0.00 0.03 0.03 71 1012.7
20260505195702 63 335 2.6 8.7 0.00 0.03 0.03 71 1012.8
20260505195201 63 282 2.6 8.7 0.00 0.03 0.03 73 1012.7
20260505194703 63 273 2.6 7.8 0.00 0.03 0.03 73 1012.7
20260505194201 63 295 2.6 7.0 0.00 0.03 0.03 72 1012.7
20260505193702 63 323 2.6 8.7 0.00 0.03 0.03 74 1012.8
20260505193201 63 297 2.6 8.7 0.00 0.03 0.03 74 1012.8
20260505192702 62 294 3.5 8.7 0.00 0.03 0.03 74 1012.7
20260505192201 62 281 2.6 8.7 0.00 0.03 0.03 73 1012.7
20260505191702 62 305 2.6 8.7 0.00 0.03 0.03 73 1012.8
20260505191201 62 335 2.6 8.7 0.00 0.03 0.03 73 1012.9
20260505190701 62 321 2.6 8.7 0.00 0.03 0.03 74 1012.8
20260505190201 62 308 2.6 7.0 0.00 0.03 0.03 74 1012.8
20260505185701 62 288 2.6 7.0 0.00 0.03 0.03 73 1012.8
20260505185205 63 304 2.6 7.8 0.00 0.03 0.03 73 1012.7
20260505184702 63 309 3.5 10.4 0.00 0.04 0.03 72 1012.6
20260505184201 62 293 3.5 10.4 0.00 0.04 0.03 72 1012.6
20260505183702 63 274 2.6 7.8 0.00 0.04 0.03 72 1012.6
20260505183202 63 321 2.6 7.0 0.00 0.05 0.03 72 1012.6
20260505182704 63 277 2.6 7.0 0.00 0.05 0.03 71 1012.5
20260505182201 63 271 2.6 7.0 0.00 0.05 0.03 73 1012.5
20260505181701 63 332 2.6 7.0 0.00 0.05 0.03 74 1012.5
20260505181459 62 321 2.6 7.0 0.00 0.05 0.03 76 1012.4
20260505180808 61 5 2.6 5.2 0.00 0.06 0.03 77 1012.5
20260505180742 61 304 2.6 5.2 0.00 0.05 0.03 75 1012.5
20260505175701 60 270 2.6 5.2 0.00 0.06 0.03 78 1012.5
20260505175457 60 325 2.6 6.1 0.00 0.06 0.03 78 1012.5
20260505175016 60 281 2.6 6.1 0.00 0.06 0.03 76 1012.5
20260505174201 59 254 2.6 6.1 0.00 0.06 0.03 78 1012.4
20260505173701 59 355 2.6 6.1 0.00 0.06 0.03 78 1012.3
20260505173517 58 290 2.6 6.1 0.00 0.06 0.03 80 1012.2
20260505172702 58 297 2.6 6.1 0.00 0.06 0.03 80 1012.3
20260505172202 58 301 2.6 6.1 0.00 0.06 0.03 80 1012.2
20260505172017 58 293 2.6 4.3 0.00 0.06 0.03 80 1012.2
20260505171202 58 304 1.7 4.3 0.00 0.06 0.03 82 1012.3
20260505170701 57 321 2.6 4.3 0.00 0.07 0.03 82 1012.3
20260505170202 57 298 2.6 5.2 0.00 0.07 0.03 82 1012.3
20260505165702 57 334 1.7 5.2 0.00 0.07 0.03 83 1012.3
20260505165204 57 302 1.7 4.3 0.00 0.07 0.03 84 1012.3
20260505164701 57 288 1.7 7.8 0.00 0.07 0.03 83 1012.4
20260505164201 57 317 2.6 7.8 0.00 0.07 0.03 83 1012.3
20260505163702 56 320 2.6 7.8 0.00 0.07 0.03 84 1012.2
20260505163203 56 331 2.6 7.8 0.00 0.07 0.03 85 1012.2
20260505162705 56 284 1.7 4.3 0.00 0.07 0.03 85 1012.2
20260505162458 56 290 1.7 4.3 0.00 0.07 0.03 86 1012.2
20260505161701 56 300 1.7 4.3 0.00 0.07 0.03 86 1012.1
20260505161202 56 296 1.7 4.3 0.00 0.07 0.03 86 1012.2
20260505160702 56 309 1.7 4.3 0.00 0.07 0.03 86 1012.2
20260505160202 56 325 1.7 4.3 0.00 0.07 0.03 86 1012.1
20260505153202 55 317 1.7 5.2 0.00 0.07 0.03 87 1012.1
20260505152701 55 343 1.7 5.2 0.00 0.07 0.03 87 1012.1
20260505152202 55 332 1.7 5.2 0.00 0.07 0.03 87 1012.0
20260505151701 55 323 1.7 3.5 0.00 0.07 0.03 88 1011.8
20260505151204 55 344 1.7 3.5 0.00 0.07 0.03 89 1011.8
20260505150702 55 5 1.7 3.5 0.00 0.07 0.03 90 1011.8
20260505150203 55 9 1.7 3.5 0.00 0.07 0.03 90 1011.8
20260505140501 53 232 0.0 1.7 0.00 0.07 0.03 93 1011.5
20260505130200 53 11 0.0 1.7 0.00 0.07 0.03 92 1011.2
20260505124939 53 11 0.0 1.7 0.00 0.07 0.03 92 1011.1
20260505124426 53 11 0.0 1.7 0.00 0.07 0.03 92 1011.0
20260505123637 53 11 0.0 1.7 0.00 0.07 0.03 92 1010.8
20260505123136 53 11 0.0 0.9 0.00 0.07 0.03 92 1010.9
20260505122633 53 11 0.0 2.6 0.00 0.07 0.03 92 1011.0
20260505122132 53 11 0.0 2.6 0.00 0.07 0.03 92 1011.0
20260505121632 53 11 0.0 2.6 0.00 0.07 0.03 92 1010.9